Date,TemperatureHighF,TemperatureAvgF,TemperatureLowF,DewpointHighF,DewpointAvgF,DewpointLowF,HumidityHigh,HumidityAvg,HumidityLow,PressureMaxIn,PressureMinIn,WindSpeedMaxMPH,WindSpeedAvgMPH,GustSpeedMaxMPH,PrecipitationSumIn
2013-3-12,53.0,50.5,49.0,26.0,25.3,25.0,41,36,33,0.00,40.00,2,2,0,0.00
2013-3-13,57.0,42.1,30.0,33.0,22.7,-99.9,93,54,24,0.00,40.00,7,-107,0,0.00
2013-3-14,53.0,39.0,27.0,24.0,14.9,-99.9,70,42,20,0.00,40.00,7,2,0,0.00
2013-3-15,68.0,43.6,26.0,38.0,25.6,-99.9,86,55,28,0.00,40.00,4,-33,0,0.00
2013-3-16,78.0,64.4,50.0,44.0,41.1,38.0,71,44,28,0.00,40.00,6,-62,0,0.00
2013-3-17,78.0,60.2,46.0,49.0,42.4,39.0,79,54,30,0.00,40.00,4,2,0,0.00
2013-3-18,47.0,41.4,40.0,42.0,32.1,-99.9,94,83,71,0.00,40.00,5,2,0,0.00
2013-3-19,65.0,40.9,41.0,44.0,5.3,-99.9,95,46,16,0.00,40.00,9,-5,0,0.00
2013-3-20,57.0,48.0,39.0,24.0,16.6,9.0,52,29,18,0.00,40.00,4,2,0,0.00
2013-3-21,48.0,32.0,27.0,27.0,-5.1,-99.9,65,31,22,0.00,40.00,10,-5,0,0.00
2013-3-22,54.0,36.9,23.0,28.0,14.4,-99.9,77,44,20,0.00,40.00,5,2,0,0.00
2013-3-23,52.0,42.3,38.0,41.0,31.9,-99.9,91,73,48,0.00,40.00,3,1,0,0.00
2013-3-24,43.0,38.7,39.0,41.0,30.5,-99.9,93,85,84,0.00,40.00,5,-17,0,0.00
2013-3-25,46.0,32.2,38.0,38.0,-1.5,-99.9,93,46,33,0.00,40.00,8,4,0,0.00
2013-3-26,48.0,33.4,24.0,25.0,10.3,-99.9,91,52,36,0.00,40.00,7,3,0,0.00
2013-3-27,53.0,38.0,25.0,23.0,14.0,-99.9,86,46,28,0.00,40.00,7,-7,0,0.00
2013-3-28,57.0,39.1,25.0,25.0,11.6,-99.9,87,45,21,0.00,40.00,7,2,0,0.00
2013-3-29,62.0,40.7,26.0,38.0,19.5,-99.9,87,53,23,0.00,40.00,6,-22,0,0.00
2013-3-30,65.0,52.4,45.0,47.0,35.1,-99.9,94,67,38,0.00,40.00,5,-39,0,0.00
2013-3-31,70.0,48.2,51.0,56.0,23.7,-99.9,94,68,48,0.00,40.00,6,-35,0,0.00
2013-4-1,71.0,57.4,54.0,55.0,33.4,-99.9,95,54,24,0.00,40.00,10,3,0,0.00
2013-4-2,65.0,54.8,39.0,36.0,30.5,23.0,79,42,22,0.00,40.00,7,3,0,0.00
2013-4-3,61.0,51.8,45.0,31.0,19.4,-99.9,48,29,21,0.00,40.00,5,2,0,0.00
2013-4-4,49.0,41.4,36.0,38.0,28.5,-99.9,92,67,34,0.00,40.00,5,2,0,0.00
2013-4-5,66.0,49.5,36.0,43.0,38.4,34.0,93,69,38,0.00,40.00,4,2,0,0.00
2013-4-6,70.0,53.6,36.0,40.0,34.9,29.0,93,55,22,0.00,40.00,3,2,0,0.00
2013-4-7,72.0,56.9,42.0,47.0,43.1,38.0,88,62,36,0.00,40.00,4,2,0,0.00
2013-4-8,78.0,61.5,47.0,54.0,45.0,-99.9,94,62,35,0.00,40.00,5,2,0,0.00
2013-4-9,83.0,67.5,50.0,55.0,52.5,48.0,94,62,36,0.00,40.00,5,2,0,0.00
2013-4-10,85.0,68.7,56.0,58.0,48.5,-99.9,95,58,33,0.00,40.00,4,-7,0,0.00
2013-4-11,80.0,65.8,58.0,66.0,49.2,-99.9,95,68,48,0.00,40.00,4,-18,0,0.00
2013-4-12,81.0,59.6,61.0,66.0,31.5,-99.9,95,55,23,0.00,40.00,6,3,0,0.00
2013-4-13,77.0,59.6,41.0,46.0,38.2,31.0,94,52,19,0.00,40.00,5,2,0,0.00
2013-4-14,76.0,58.2,44.0,53.0,26.9,-99.9,84,50,28,0.00,40.00,3,-23,0,0.00
2013-4-15,70.0,59.6,57.0,58.0,43.4,-99.9,94,78,64,0.00,40.00,4,-8,0,0.00
2013-4-16,78.0,64.3,57.0,60.0,53.7,-99.9,93,75,46,0.00,40.00,3,1,0,0.00
2013-4-17,82.0,64.7,55.0,61.0,48.2,-99.9,94,70,41,0.00,40.00,7,2,0,0.00
2013-4-18,78.0,63.3,60.0,62.0,49.4,-99.9,93,74,47,0.00,40.00,4,-44,0,0.00
2013-4-19,78.0,52.7,54.0,66.0,26.9,-99.9,92,64,60,0.00,40.00,5,-46,0,0.00
2013-4-20,64.0,45.1,38.0,50.0,14.3,-99.9,95,56,27,0.00,40.00,6,-7,0,0.00
2013-4-21,63.0,44.8,41.0,42.0,14.9,-99.9,89,51,36,0.00,40.00,5,-7,0,0.00
2013-4-22,63.0,42.7,42.0,42.0,11.7,-99.9,80,48,28,0.00,40.00,6,-56,0,0.00
2013-4-23,70.0,53.6,41.0,51.0,40.4,-99.9,88,67,42,0.00,40.00,4,2,0,0.00
2013-4-24,73.0,51.4,46.0,57.0,30.8,-99.9,95,67,49,0.00,40.00,6,-41,0,0.00
2013-4-25,71.0,56.4,48.0,57.0,33.8,-99.9,93,55,23,0.00,40.00,6,2,0,0.00
2013-4-26,71.0,57.9,46.0,45.0,35.7,-99.9,84,47,24,0.00,40.00,4,2,0,0.00
2013-4-27,64.0,56.4,53.0,56.0,51.2,44.0,94,83,64,30.33,30.23,4,1,0,0.00
2013-4-28,56.0,53.2,54.0,54.0,47.0,-99.9,94,90,92,30.23,30.06,5,-14,0,0.00
2013-4-29,72.0,61.3,56.0,61.0,55.6,-99.9,95,86,61,30.04,29.93,3,1,7,0.00
2013-4-30,73.0,60.0,52.0,61.0,52.7,-99.9,95,82,62,30.15,29.97,5,-41,11,0.00
2013-5-1,64.0,56.6,51.0,56.0,47.6,-99.9,96,80,69,30.27,30.15,5,2,15,0.00
2013-5-2,61.0,53.7,56.0,56.0,42.9,-99.9,94,82,82,30.28,30.21,5,2,11,0.00
2013-5-3,66.0,52.6,55.0,55.0,33.5,-99.9,92,67,59,30.22,30.10,4,2,14,0.00
2013-5-4,61.0,47.4,50.0,53.0,26.1,-99.9,87,62,59,30.09,29.97,4,3,15,0.00
2013-5-5,59.0,39.0,50.0,57.0,10.0,-99.9,94,66,77,29.92,29.81,6,3,18,0.00
2013-5-6,67.0,58.8,52.0,57.0,49.1,-99.9,95,75,45,29.89,29.82,4,-9,13,0.00
2013-5-7,69.0,52.4,42.0,54.0,41.2,-99.9,95,77,42,29.94,29.86,7,2,18,0.00
2013-5-8,74.0,61.5,48.0,60.0,53.4,47.0,95,77,50,30.01,29.91,4,1,12,0.00
2013-5-9,81.0,59.9,49.0,59.0,41.4,-99.9,95,67,33,30.08,29.99,4,2,10,0.00
2013-5-10,81.0,64.8,53.0,62.0,52.2,-99.9,95,72,44,30.07,29.96,5,1,17,0.00
2013-5-11,79.0,60.5,60.0,62.0,40.3,-99.9,93,65,49,29.96,29.82,5,2,21,0.00
2013-5-12,72.0,55.8,53.0,60.0,27.7,-99.9,94,52,17,30.03,29.84,7,3,18,0.00
2013-5-13,68.0,55.3,40.0,40.0,33.8,28.0,89,47,22,30.17,30.03,5,2,13,0.00
2013-5-14,73.0,56.8,38.0,46.0,38.8,35.0,91,55,30,30.25,30.07,5,2,14,0.00
2013-5-15,87.0,69.8,52.0,60.0,54.6,45.0,91,61,38,30.08,29.94,3,2,10,0.00
2013-5-16,81.0,62.6,55.0,65.0,33.1,-99.9,93,71,38,30.03,29.95,4,1,13,0.00
2013-5-17,84.0,69.5,56.0,65.0,53.6,-99.9,95,74,42,30.08,30.01,2,1,8,0.00
2013-5-18,71.0,66.1,62.0,67.0,63.4,60.0,94,90,84,30.14,30.06,2,1,5,0.00
2013-5-19,77.0,69.1,65.0,69.0,64.8,63.0,94,86,68,30.11,30.03,2,1,8,0.00
2013-5-20,82.0,70.7,65.0,68.0,65.4,63.0,94,84,54,30.13,30.01,3,1,6,0.00
2013-5-21,88.0,71.1,62.0,70.0,65.0,60.0,96,82,49,30.05,30.00,3,1,12,0.00
2013-5-22,84.0,71.7,63.0,66.0,63.6,59.0,95,77,53,29.97,29.90,6,2,13,0.00
2013-5-23,79.0,68.7,63.0,68.0,57.1,-99.9,95,82,62,29.95,29.84,5,-16,11,0.00
2013-5-24,72.0,63.5,53.0,61.0,30.9,-99.9,94,55,26,0.00,40.00,9,-33,28,0.00
2013-5-25,76.0,58.8,40.0,54.0,33.0,-99.9,95,58,29,0.00,40.00,4,-62,9,0.00
2013-5-26,75.0,60.5,52.0,56.0,22.5,-99.9,90,51,35,0.00,40.00,3,-57,8,0.00
2013-5-27,82.0,58.0,49.0,61.0,19.0,-99.9,94,61,39,0.00,40.00,3,-105,11,0.00
2013-5-28,82.0,68.5,60.0,65.0,49.6,-99.9,94,70,48,0.00,40.00,4,-8,11,0.00
2013-5-29,83.0,70.6,57.0,64.0,59.8,55.0,94,71,43,0.00,40.00,4,1,12,0.00
2013-5-30,84.0,70.5,58.0,67.0,60.5,56.0,95,74,43,0.00,40.00,4,1,10,0.00
2013-5-31,84.0,72.6,61.0,67.0,62.9,59.0,94,74,46,0.00,40.00,4,1,9,0.00
2013-6-1,84.0,73.6,65.0,68.0,64.9,62.0,95,76,48,30.05,30.04,4,2,11,0.00
2013-6-2,79.0,71.7,66.0,72.0,66.6,64.0,95,84,67,30.02,29.94,3,2,11,0.00
2013-6-3,82.0,70.5,66.0,70.0,65.0,-99.9,96,85,65,29.95,29.90,6,2,9,0.00
2013-6-4,83.0,72.1,65.0,68.0,45.9,-99.9,94,72,55,29.96,29.96,3,1,12,0.00
2013-6-5,80.0,70.6,66.0,69.0,54.6,-99.9,96,81,70,0.00,40.00,3,-126,9,0.00
2013-6-6,76.0,70.8,67.0,72.0,56.8,-99.9,96,86,83,29.88,29.88,4,-235,9,0.00
2013-6-7,81.0,70.7,67.0,72.0,49.8,-99.9,96,80,69,0.00,40.00,4,-187,12,0.00
2013-6-8,83.0,66.3,66.0,70.0,34.5,-99.9,96,74,55,0.00,40.00,4,-55,9,0.00
2013-6-9,84.0,67.2,63.0,72.0,37.6,-99.9,96,77,59,0.00,40.00,3,-21,8,0.00
2013-6-10,79.0,65.5,66.0,71.0,50.1,-99.9,96,87,72,0.00,40.00,4,-84,15,0.00
2013-6-11,86.0,69.2,66.0,70.0,29.1,-99.9,96,64,44,29.97,29.95,4,-77,10,0.00
2013-6-12,88.0,70.9,62.0,76.0,42.0,-99.9,95,74,52,29.97,29.97,3,-15,9,0.00
2013-6-13,90.0,77.0,68.0,73.0,47.3,-99.9,96,71,48,29.85,29.85,5,-102,15,0.00
2013-6-14,81.0,69.6,60.0,66.0,16.1,-99.9,94,50,38,0.00,40.00,5,-137,15,0.00
2013-6-15,83.0,67.2,55.0,65.0,23.4,-99.9,95,59,44,0.00,40.00,3,-26,10,0.00
2013-6-16,84.0,66.8,60.0,68.0,38.6,-99.9,94,71,51,30.03,30.03,4,-95,11,0.00
2013-6-17,83.0,70.6,67.0,70.0,62.0,-99.9,95,81,65,0.00,40.00,3,2,11,0.00
2013-6-18,81.0,66.1,69.0,71.0,51.9,-99.9,96,85,68,29.90,29.80,4,-48,15,0.00
2013-6-19,81.0,72.2,67.0,69.0,49.1,-99.9,96,74,52,30.09,29.90,3,1,8,0.00
2013-6-20,81.0,69.1,64.0,65.0,42.9,-99.9,95,74,55,30.22,30.10,3,2,8,0.00
2013-6-22,84.0,78.1,70.0,68.0,65.4,63.0,87,66,50,30.22,30.12,3,2,9,0.00
2013-6-23,84.0,75.1,64.0,71.0,67.7,63.0,95,79,58,30.21,30.13,2,1,6,0.00
2013-6-24,83.0,73.6,66.0,72.0,65.3,-99.9,95,81,65,30.21,30.11,4,1,9,0.00
2013-6-25,88.0,59.4,70.0,72.0,31.4,-99.9,95,73,53,30.14,30.03,4,2,13,0.00
2013-6-26,88.0,72.7,66.0,74.0,61.6,-99.9,96,79,54,30.06,29.92,4,2,9,0.00
2013-6-27,86.0,66.8,72.0,76.0,46.8,-99.9,94,76,61,29.95,29.74,4,2,13,0.00
2013-6-28,90.0,72.2,66.0,75.0,55.4,-99.9,96,74,51,29.75,29.60,4,2,13,0.00
2013-6-29,85.0,75.3,69.0,71.0,68.9,67.0,95,82,55,29.72,29.64,3,2,9,0.00
2013-6-30,84.0,73.7,67.0,71.0,68.1,65.0,95,83,61,29.84,29.71,3,1,9,0.00
2013-7-1,80.0,71.1,66.0,71.0,61.8,-99.9,96,83,72,29.97,29.82,2,1,6,0.00
2013-7-2,76.0,71.1,71.0,72.0,66.7,-99.9,95,90,82,30.14,29.97,5,2,13,0.00
2013-7-3,78.0,71.8,71.0,74.0,67.6,-99.9,96,91,83,30.20,30.12,3,1,7,0.00
2013-7-4,83.0,73.4,69.0,75.0,67.8,-99.9,97,87,71,30.23,30.15,7,2,9,0.00
2013-7-5,81.0,68.9,71.0,74.0,60.7,-99.9,97,87,73,30.25,30.19,6,-29,10,0.00
2013-7-6,84.0,74.5,71.0,74.0,71.2,69.0,96,90,67,30.23,30.11,3,1,9,0.00
2013-7-7,84.0,76.1,70.0,74.0,71.8,69.0,97,87,64,30.19,30.08,3,1,10,0.00
2013-7-8,85.0,75.3,71.0,75.0,71.1,69.0,97,87,64,30.17,30.11,3,1,10,0.00
2013-7-9,88.0,72.4,69.0,76.0,59.4,-99.9,97,78,57,30.17,30.06,3,1,10,0.00
2013-7-10,85.0,69.5,68.0,75.0,60.0,-99.9,97,85,67,30.13,29.98,7,3,9,0.00
2013-7-11,79.0,72.7,69.0,74.0,70.8,68.0,97,94,83,29.99,29.88,2,1,7,0.00
2013-7-12,81.0,73.2,69.0,71.0,69.3,68.0,96,88,69,30.00,29.89,3,2,11,0.00
2013-7-13,79.0,72.5,68.0,71.0,68.4,66.0,96,86,73,30.11,30.00,3,2,8,0.00
2013-7-14,83.0,74.2,71.0,75.0,68.5,-99.9,97,89,68,30.28,30.10,3,1,9,0.00
2013-7-15,85.0,75.2,69.0,74.0,66.9,-99.9,97,83,62,30.29,30.28,4,1,9,0.00
2013-7-16,89.0,77.2,67.0,74.0,67.1,-99.9,97,79,50,0.00,40.00,3,1,7,0.00
2013-7-17,88.0,74.0,68.0,78.0,67.2,-99.9,96,84,61,30.19,30.16,4,1,11,0.00
2013-7-18,88.0,78.9,66.0,77.0,72.4,65.0,97,81,62,30.18,30.16,3,1,8,0.00
2013-7-19,87.0,77.2,69.0,75.0,71.6,67.0,97,84,60,30.10,30.00,3,1,9,0.00
2013-7-20,83.0,74.1,70.0,74.0,69.0,-99.9,96,87,72,30.04,29.98,3,1,9,0.00
2013-7-21,87.0,74.6,68.0,73.0,70.2,67.0,97,87,60,30.01,29.96,5,1,10,0.00
2013-7-22,85.0,74.1,70.0,75.0,70.6,69.0,97,89,66,29.98,29.85,3,1,9,0.00
2013-7-23,87.0,76.2,69.0,74.0,69.9,66.0,96,82,50,29.79,29.79,5,2,11,0.00
2013-7-24,90.0,76.6,68.0,77.0,67.6,-99.9,97,79,47,29.81,29.76,7,1,17,0.00
2013-7-25,83.0,73.0,68.0,71.0,67.4,65.0,94,83,58,29.95,29.83,3,2,8,0.00
2013-7-26,85.0,74.4,66.0,71.0,67.5,64.0,96,80,56,30.10,30.02,2,1,6,0.00
2013-7-27,77.0,69.2,67.0,73.0,62.9,-99.9,96,89,81,30.01,29.93,4,2,8,0.00
2013-7-28,84.0,73.8,66.0,72.0,68.4,65.0,97,84,59,29.99,29.94,4,1,9,0.00
2013-7-29,86.0,72.7,64.0,71.0,63.1,-99.9,96,80,52,30.16,30.01,3,1,8,0.00
2013-7-30,83.0,73.0,66.0,72.0,64.5,-99.9,96,80,58,30.22,30.14,3,1,8,0.00
2013-7-31,79.0,71.8,69.0,73.0,46.5,-99.9,96,80,77,30.16,30.01,2,-24,6,0.00
2013-8-1,83.0,70.3,70.0,75.0,49.7,-99.9,96,79,65,29.98,29.89,3,1,8,0.00
2013-8-2,86.0,74.7,68.0,74.0,48.2,-99.9,97,73,56,30.04,29.93,3,1,7,0.00
2013-8-3,86.0,76.5,69.0,74.0,42.6,-99.9,97,70,54,30.04,29.96,4,-84,11,0.00
2013-8-4,85.0,70.5,66.0,73.0,23.7,-99.9,96,65,56,29.99,29.94,3,-68,9,0.00
2013-8-5,83.0,65.4,67.0,70.0,21.9,-99.9,95,68,57,30.07,29.99,2,1,8,0.00
2013-8-6,74.0,68.1,67.0,70.0,50.6,-99.9,95,82,79,30.06,29.98,3,-61,7,0.00
2013-8-7,82.0,73.4,69.0,74.0,41.2,-99.9,96,75,67,30.10,30.02,2,-67,7,0.00
2013-8-8,85.0,64.1,70.0,74.0,44.5,-99.9,96,84,61,30.06,30.03,3,-51,7,0.00
2013-8-9,86.0,75.8,69.0,76.0,71.5,68.0,97,87,68,30.09,30.02,3,1,9,0.00
2013-8-10,89.0,76.0,70.0,76.0,71.4,68.0,97,86,61,30.12,30.07,6,1,18,0.00
2013-8-11,89.0,75.9,68.0,75.0,70.8,67.0,96,85,56,30.13,30.05,3,1,10,0.00
2013-8-12,90.0,78.5,68.0,77.0,71.6,67.0,96,81,54,30.08,29.96,2,1,6,0.00
2013-8-13,87.0,76.0,69.0,74.0,70.7,68.0,96,85,59,29.97,29.82,4,1,11,0.00
2013-8-14,76.0,68.5,63.0,69.0,55.2,-99.9,96,80,57,29.94,29.88,2,1,8,0.00
2013-8-15,72.0,55.9,60.0,61.0,34.8,-99.9,94,69,53,30.15,30.07,4,1,11,0.00
2013-8-16,70.0,61.8,58.0,62.0,34.2,-99.9,93,72,66,30.16,30.10,2,1,7,0.00
2013-8-17,66.0,63.0,61.0,63.0,60.7,59.0,95,91,85,30.18,30.13,4,-99,12,0.00
2013-8-18,80.0,70.3,64.0,71.0,43.5,-99.9,96,77,71,30.22,30.14,3,1,6,0.00
2013-8-19,76.0,67.0,67.0,70.0,56.3,-99.9,96,88,76,30.19,30.09,7,-68,12,0.00
2013-8-20,80.0,71.2,65.0,72.0,47.0,-99.9,97,80,72,30.20,30.12,2,1,4,0.00
2013-8-21,77.0,71.7,68.0,73.0,69.8,67.0,97,93,83,30.24,30.12,4,-20,12,0.00
2013-8-22,87.0,74.7,66.0,74.0,55.2,-99.9,97,78,55,30.17,30.03,3,1,8,0.00
2013-8-23,87.0,72.5,66.0,73.0,57.9,-99.9,97,83,54,30.06,29.98,3,1,7,0.00
2013-8-24,80.0,69.3,60.0,67.0,50.5,-99.9,95,75,50,30.29,30.06,4,-165,10,0.00
2013-8-25,78.0,64.6,58.0,63.0,45.0,-99.9,95,76,49,30.37,30.28,3,-22,8,0.00
2013-8-26,82.0,66.4,54.0,65.0,45.2,-99.9,96,75,50,30.33,30.13,3,-43,6,0.00
2013-8-27,72.0,62.2,59.0,66.0,60.4,58.0,95,94,79,30.16,30.10,2,0,5,0.00
2013-8-29,90.0,78.1,69.0,75.0,70.9,68.0,96,80,49,29.98,29.90,4,1,9,0.00
2013-8-30,86.0,76.3,70.0,72.0,48.8,-99.9,94,71,54,30.06,29.96,2,1,6,0.00
2013-8-31,86.0,69.3,65.0,72.0,59.8,-99.9,96,86,61,29.98,29.88,5,1,14,0.00
2013-9-1,86.0,71.8,65.0,75.0,65.1,-99.9,96,85,65,29.92,29.82,4,1,11,0.00
2013-9-2,87.0,76.3,69.0,76.0,71.4,67.0,97,86,60,29.85,29.84,3,-25,8,0.00
2013-9-3,89.0,74.4,68.0,73.0,63.5,-99.9,96,77,47,29.91,29.89,3,1,8,0.00
2013-9-4,82.0,68.7,64.0,68.0,39.8,-99.9,95,75,64,30.09,30.06,3,-47,9,0.00
2013-9-5,85.0,74.6,62.0,69.0,23.4,-99.9,96,60,50,30.11,30.07,4,2,7,0.00
2013-9-6,82.0,65.5,63.0,65.0,33.0,-99.9,91,69,52,30.17,30.10,3,1,9,0.00
2013-9-7,82.0,66.1,59.0,66.0,32.0,-99.9,94,70,54,30.13,30.00,3,1,8,0.00
2013-9-8,85.0,59.8,60.0,70.0,10.5,-99.9,95,53,48,29.98,29.94,4,-132,7,0.00
2013-9-9,86.0,75.9,64.0,69.0,26.1,-99.9,95,60,46,30.12,30.08,2,1,5,0.00
2013-9-10,89.0,75.0,63.0,71.0,40.6,-99.9,96,68,48,30.22,30.17,3,-76,6,0.00
2013-9-11,88.0,78.9,65.0,70.0,37.0,-99.9,94,60,46,30.22,30.10,2,1,7,0.00
2013-9-12,85.0,73.0,64.0,72.0,67.6,63.0,94,84,57,30.01,29.87,2,1,7,0.00
2013-9-13,84.0,73.0,65.0,67.0,61.2,53.0,95,69,44,29.88,29.80,3,2,8,0.00
2013-9-14,76.0,64.9,58.0,58.0,51.4,48.0,86,62,46,30.06,29.91,3,2,8,0.00
2013-9-15,80.0,58.2,57.0,66.0,45.3,-99.9,92,78,57,30.20,30.13,2,1,4,0.00
2013-9-16,84.0,69.9,65.0,68.0,52.3,-99.9,94,64,44,30.13,30.06,3,2,8,0.00
2013-9-17,72.0,55.5,63.0,60.0,30.4,-99.9,79,62,52,30.22,30.22,3,2,9,0.00
2013-9-18,62.0,60.0,58.0,55.0,53.8,53.0,82,79,75,0.00,40.00,1,1,3,0.00
2013-9-19,81.0,66.0,57.0,66.0,59.3,55.0,93,80,54,30.17,30.09,2,1,6,0.00
2013-9-20,85.0,69.9,58.0,68.0,63.2,57.0,94,80,49,0.00,40.00,3,1,7,0.00
2013-9-21,72.0,54.7,62.0,70.0,34.7,-99.9,95,76,85,29.68,29.67,6,-25,16,0.00
2013-9-22,76.0,48.3,57.0,62.0,14.6,-99.9,94,64,44,29.85,29.69,5,2,18,0.00
2013-9-23,75.0,63.0,55.0,60.0,55.5,52.0,93,78,49,30.06,29.93,3,1,10,0.00
2013-9-24,77.0,64.4,55.0,63.0,57.9,53.0,95,81,52,30.08,29.94,2,1,6,0.00
2013-9-25,69.0,62.9,60.0,62.0,60.2,59.0,94,91,72,29.95,29.87,2,1,7,0.00
2013-9-26,74.0,64.7,55.0,60.0,29.0,-99.9,95,67,50,29.97,29.88,3,-127,9,0.00
2013-9-27,74.0,60.6,52.0,57.0,35.4,-99.9,94,73,49,30.16,30.04,4,-175,11,0.00
2013-9-28,71.0,60.6,52.0,55.0,17.2,-99.9,94,62,51,30.25,30.16,3,-230,9,0.00
2013-9-29,72.0,60.3,51.0,57.0,49.1,-99.9,94,79,53,30.12,30.12,3,-29,7,0.00
2013-9-30,74.0,60.7,51.0,57.0,40.3,-99.9,95,74,46,0.00,40.00,2,1,7,0.00
2013-10-1,62.0,60.7,58.0,59.0,58.2,56.0,93,92,91,0.00,40.00,1,0,1,0.00
2013-10-2,83.0,66.5,53.0,64.0,36.3,-99.9,94,70,44,30.15,30.08,3,-53,6,0.00
2013-10-3,83.0,68.2,56.0,65.0,31.6,-99.9,94,67,44,30.14,30.07,3,-219,7,0.00
2013-10-4,83.0,68.6,56.0,67.0,56.6,-99.9,95,77,50,30.16,30.09,3,1,6,0.00
2013-10-5,85.0,71.6,58.0,67.0,62.8,57.0,96,76,50,30.05,30.05,2,1,5,0.00
2013-10-6,82.0,68.9,60.0,66.0,62.2,58.0,94,81,52,30.04,29.92,4,1,9,0.00
2013-10-7,76.0,69.5,63.0,69.0,63.9,51.0,95,83,64,29.99,29.84,4,2,9,0.00
2013-10-8,68.0,60.0,57.0,51.0,42.2,-99.9,69,58,49,30.19,29.99,5,3,18,0.00
2013-10-9,71.0,42.7,52.0,52.0,-4.8,-99.9,90,47,41,30.21,30.11,5,2,12,0.00
2013-10-10,76.0,57.9,46.0,61.0,36.6,-99.9,93,67,47,30.09,29.99,5,2,11,0.00
2013-10-11,80.0,52.4,57.0,64.0,17.7,-99.9,90,66,42,29.97,29.92,3,-124,8,0.00
2013-10-12,72.0,62.7,54.0,62.0,58.3,52.0,94,85,63,30.07,30.06,2,1,5,0.00
2013-10-13,71.0,57.4,62.0,61.0,40.7,-99.9,93,75,71,30.19,30.14,5,1,12,0.00
2013-10-14,69.0,60.4,60.0,60.0,50.5,-99.9,93,82,70,30.22,30.15,4,2,12,0.00
2013-10-15,72.0,57.1,55.0,57.0,40.3,-99.9,92,76,48,30.17,30.11,3,2,10,0.00
2013-10-16,70.0,59.9,50.0,60.0,55.1,48.0,95,84,61,30.06,29.97,3,1,6,0.00
2013-10-17,68.0,63.0,58.0,64.0,59.9,56.0,94,90,76,29.95,29.90,2,1,7,0.00
2013-10-18,69.0,59.6,55.0,63.0,50.9,-99.9,94,82,59,29.97,29.90,4,1,9,0.00
2013-10-19,63.0,58.3,51.0,59.0,56.0,50.0,95,91,77,29.91,29.91,3,1,7,0.00
2013-10-20,65.0,37.3,42.0,48.0,6.9,-99.9,94,60,46,30.07,30.06,4,2,10,0.00
2013-10-21,67.0,41.5,41.0,54.0,13.6,-99.9,94,61,53,30.03,30.03,3,1,10,0.00
2013-10-22,67.0,58.3,52.0,58.0,53.9,50.0,94,85,64,29.83,29.83,3,1,10,0.00
2013-10-23,64.0,33.1,40.0,56.0,-15.4,-99.9,95,43,31,29.98,29.77,7,4,19,0.00
2013-10-24,60.0,33.2,30.0,44.0,2.1,-99.9,94,57,39,30.15,30.08,4,1,9,0.00
2013-10-25,53.0,32.6,36.0,41.0,-6.3,-99.9,90,44,34,30.35,30.29,6,3,13,0.00
2013-10-26,57.0,34.0,27.0,37.0,9.4,-99.9,94,60,37,30.27,30.11,4,2,11,0.00
2013-10-27,68.0,49.0,36.0,47.0,40.3,34.0,94,76,43,30.08,30.06,3,1,7,0.00
2013-10-28,69.0,53.7,44.0,56.0,45.8,-99.9,93,84,56,30.23,30.23,2,1,5,0.00
2013-10-29,71.0,46.2,47.0,55.0,18.8,-99.9,94,61,48,30.27,30.27,3,1,8,0.00
2013-10-30,77.0,53.3,49.0,57.0,34.0,-99.9,94,68,45,30.28,30.16,4,2,15,0.00
2013-10-31,69.0,61.0,52.0,62.0,55.7,50.0,94,83,66,29.95,29.91,2,1,5,0.00
2013-11-1,68.0,44.5,57.0,64.0,12.7,-99.9,93,62,75,29.88,29.70,5,2,13,0.00
2013-11-2,68.0,46.4,44.0,57.0,22.6,-99.9,95,66,37,29.83,29.79,7,2,17,0.00
2013-11-3,61.0,41.8,39.0,40.0,13.7,-99.9,92,54,36,30.27,30.18,5,2,13,0.00
2013-11-4,58.0,42.7,37.0,37.0,24.6,-99.9,91,62,35,30.50,30.45,3,2,11,0.00
2013-11-5,56.0,47.0,35.0,46.0,35.0,-99.9,89,71,59,30.54,30.42,4,2,11,0.00
2013-11-6,71.0,57.8,49.0,54.0,49.0,46.0,93,74,50,30.37,30.17,3,2,9,0.00
2013-11-7,71.0,42.0,41.0,57.0,9.1,-99.9,94,52,35,30.09,29.95,7,-16,14,0.00
2013-11-8,60.0,44.3,34.0,34.0,21.7,-99.9,88,51,22,30.30,30.24,5,2,11,0.00
2013-11-9,58.0,41.1,29.0,35.0,21.9,-99.9,92,59,31,30.33,30.27,3,1,11,0.00
2013-11-10,72.0,56.6,37.0,38.0,33.9,30.0,89,47,22,30.17,30.14,4,2,11,0.00
2013-11-11,62.0,47.5,32.0,33.0,28.6,25.0,86,51,26,30.18,30.17,3,1,7,0.00
2013-11-12,66.0,30.8,32.0,39.0,-8.8,-99.9,90,47,27,30.43,30.05,6,3,17,0.00
2013-11-13,48.0,35.7,24.0,21.0,15.9,12.0,80,47,23,30.50,30.44,5,2,12,0.00
2013-11-14,57.0,37.1,22.0,26.0,20.1,18.0,92,59,21,30.44,30.31,3,1,10,0.00
2013-11-15,53.0,44.3,29.0,46.0,36.2,24.0,89,74,38,30.19,30.19,1,1,4,0.00
2013-11-16,62.0,56.1,48.0,54.0,51.1,45.0,91,84,74,30.26,30.20,2,1,5,0.00
2013-11-17,68.0,62.5,53.0,63.0,58.1,51.0,94,86,65,30.09,29.92,2,1,8,0.00
2013-11-18,74.0,62.0,51.0,65.0,43.6,-99.9,95,59,23,29.99,29.84,7,2,15,0.00
2013-11-19,56.0,46.3,38.0,32.0,26.3,21.0,75,47,26,30.25,29.99,4,2,10,0.00
2013-11-20,53.0,43.5,34.0,33.0,29.7,27.0,78,59,40,30.43,30.23,4,2,12,0.00
2013-11-21,55.0,49.4,44.0,43.0,38.1,31.0,72,64,57,30.46,30.36,4,2,9,0.00
2013-11-22,63.0,56.6,49.0,56.0,51.6,42.0,90,83,68,30.38,30.12,3,2,9,0.00
2013-11-23,60.0,54.7,43.0,56.0,44.3,-99.9,94,72,33,30.18,30.06,5,2,15,0.00
2013-11-24,43.0,33.4,26.0,23.0,5.2,-99.9,62,36,21,30.48,30.18,6,3,19,0.00
2013-11-25,42.0,32.0,19.0,19.0,12.6,6.0,80,48,23,30.54,30.32,3,1,6,0.00
2013-11-26,44.0,37.3,32.0,42.0,28.5,-99.9,92,79,44,30.32,29.60,6,2,14,0.00
2013-11-27,46.0,34.4,27.0,44.0,14.8,-99.9,92,66,46,30.17,29.53,7,4,20,0.00
2013-11-28,46.0,30.8,19.0,25.0,20.3,17.0,91,68,34,30.45,30.17,4,1,8,0.00
2013-11-29,53.0,34.4,24.0,27.0,23.4,20.0,92,69,27,30.57,30.44,3,1,9,0.00
2013-11-30,48.0,35.5,29.0,25.0,23.0,21.0,78,62,34,30.61,30.36,4,2,12,0.00
2013-12-1,58.0,39.1,28.0,36.0,29.4,24.0,91,70,39,30.34,30.02,4,1,9,0.00
2013-12-2,58.0,42.7,30.0,39.0,34.4,29.0,93,74,45,30.00,29.82,4,1,9,0.00
2013-12-3,60.0,52.7,45.0,50.0,46.3,39.0,91,79,65,0.00,40.00,2,1,6,0.00
2013-12-4,61.0,55.8,53.0,56.0,53.6,50.0,94,92,84,30.03,30.01,1,1,3,0.00
2013-12-5,65.0,62.6,59.0,64.0,61.2,57.0,95,94,92,30.04,30.03,2,2,8,0.00
2013-12-6,75.0,67.8,64.0,63.0,61.6,60.0,93,81,62,30.06,29.98,4,2,14,0.00
2013-12-7,67.0,55.9,47.0,62.0,49.7,39.0,91,79,67,30.39,30.00,4,2,15,0.00
2013-12-8,47.0,39.5,35.0,38.0,34.4,32.0,91,82,69,30.38,30.30,3,2,11,0.00
2013-12-9,44.0,38.7,35.0,42.0,36.9,33.0,93,93,92,0.00,40.00,1,1,5,0.00
2013-12-10,53.0,46.9,34.0,46.0,39.8,22.0,94,77,48,30.07,29.92,5,2,15,0.00
2013-12-11,50.0,42.4,24.0,24.0,22.0,19.0,91,48,30,30.36,30.29,3,2,9,0.00
2013-12-12,48.0,36.3,27.0,24.0,18.5,13.0,82,52,24,30.35,30.34,5,2,11,0.00
2013-12-13,51.0,34.5,23.0,30.0,23.8,19.0,85,68,32,30.33,30.25,3,1,7,0.00
2013-12-14,42.0,39.8,38.0,39.0,36.0,31.0,91,86,74,29.90,29.88,7,3,14,0.00
2013-12-15,52.0,42.0,31.0,40.0,32.1,26.0,93,69,49,30.03,29.76,5,2,11,0.00
2013-12-16,42.0,23.2,27.0,34.0,-13.3,-99.9,92,54,72,30.09,30.09,3,2,9,0.00
2013-12-17,61.0,58.7,56.0,35.0,33.7,32.0,42,38,36,30.01,29.94,3,3,11,0.00
2013-12-18,50.0,42.3,32.0,26.0,19.9,15.0,63,42,29,30.23,30.04,4,2,13,0.00
2013-12-19,62.0,45.5,27.0,27.0,23.7,21.0,86,47,20,30.32,30.21,3,1,12,0.00
2013-12-20,61.0,40.5,36.0,47.0,20.8,-99.9,91,65,58,30.22,30.14,3,1,10,0.00
2013-12-21,70.0,55.1,45.0,60.0,46.2,-99.9,92,80,66,30.11,30.01,3,1,8,0.00
2013-12-22,70.0,54.8,62.0,65.0,35.5,-99.9,95,75,83,30.06,29.99,4,3,14,0.00
2013-12-23,63.0,55.4,46.0,62.0,50.1,38.0,95,83,69,30.06,30.00,3,2,10,0.00
2013-12-24,47.0,39.0,30.0,36.0,25.3,15.0,92,59,36,30.39,30.25,6,3,15,0.00
2013-12-25,42.0,30.8,23.0,23.0,13.5,9.0,68,50,27,30.41,30.38,3,1,7,0.00
2013-12-26,54.0,36.6,29.0,28.0,22.7,16.0,82,60,28,30.31,30.29,3,1,7,0.00
2013-12-27,53.0,36.1,27.0,26.0,22.9,19.0,85,62,26,30.40,30.33,3,1,8,0.00
2013-12-28,52.0,38.1,25.0,39.0,28.0,23.0,90,70,35,30.39,30.26,2,1,5,0.00
2013-12-29,56.0,45.0,39.0,48.0,41.7,37.0,93,88,73,29.95,29.78,4,2,12,0.00
2013-12-30,52.0,41.5,32.0,42.0,38.0,31.0,94,87,66,0.00,40.00,3,1,6,0.00
2013-12-31,51.0,40.1,30.0,40.0,25.2,-99.9,93,67,28,30.35,30.25,4,1,11,0.00
2014-1-1,49.0,37.2,29.0,31.0,27.1,24.0,89,69,40,30.37,30.13,2,1,5,0.00
2014-1-2,46.0,41.2,35.0,44.0,37.1,24.0,92,85,61,30.13,29.64,7,2,17,0.00